Location: Koblenz
(50.3564°N, 7.5916°E)
Time: 11:51:33
(UTC+01:00)

ISS - Visible Passes

Search period start: 09 December 2025 00:00
Search period end: 19 December 2025 00:00
Orbit: 416 x 421 km, 51.6° (Epoch: 08 December)

Date Brightness Start Highest point End Pass type
(mag) Time Alt. Az. Time Alt. Az. Time Alt. Az.
11 Dec -0.1 07:15:30 10° SSE 07:16:24 11° SE 07:17:17 10° ESE visible
13 Dec -1.1 07:14:10 10° SSW 07:16:55 23° SE 07:19:38 10° E visible
14 Dec -0.8 06:26:59 10° S 06:29:08 16° SE 06:31:16 10° E visible
15 Dec -0.5 05:40:40 10° SSE 05:41:23 10° SE 05:42:04 10° ESE visible
15 Dec -2.6 07:14:15 10° SW 07:17:29 45° SSE 07:20:45 10° E visible
16 Dec -2.1 06:26:48 12° SSW 06:29:34 32° SSE 06:32:38 10° E visible
17 Dec -1.6 05:41:24 22° SSE 05:41:41 22° SE 05:44:24 10° E visible
17 Dec -3.7 07:14:45 10° WSW 07:18:07 80° SSE 07:21:31 10° ENE visible
18 Dec -0.2 04:55:46 11° ESE 04:55:46 11° ESE 04:55:54 10° E visible
18 Dec -3.4 06:28:43 31° SW 06:30:05 61° SSE 06:33:26 10° ENE visible
